Tracking 35030 objects as of 11-Aug-2026
HD Live streaming from Space Station
objects crossing your sky now

SL-12 DEB


SL-12 DEB is no longer on orbit


NORAD ID: 29437
Int'l Code: 1989-039CL
Launch date: May 31, 1989
Source: Commonwealth of Independent States (former USSR) (CIS)
Launch site: TYURATAM MISSILE AND SPACE COMPLEX (TTMTR)
Decay date: 2008-04-08

Note: This is SATELLITE DEBRIS
Your satellite tracking list
Your tracking list is empty




NASA's NSSDC Master Catalog

Two Line Element Set (TLE):
1 29437U 89039CL  06341.70965036  .00008572  00000-0  25176+0 0  9996
2 29437 065.4314 229.8578 5469195 061.8763 342.5197 04.22611412  5897
Source of the keplerian elements: AFSPC